"Pseudo-MPEC" for A11F769

Created 2026 Jul 28 21:35:03 UT using Find_Orb

Click here for an explanation of pseudo-MPECs

 
 Astrometry: 
     A11F769*0C2026 07 26.12846100 27 11.774-35 41 11.04   ~7Q9K 19.21oVNEOCPM22
     A11F769 0C2026 07 26.13254100 27 18.614-35 42 07.24   ~7Q9Kx19.23oVNEOCPM22
     A11F769 0C2026 07 26.13794600 27 27.206-35 43 16.10   ~7Q9K 19.10oVNEOCPM22
     A11F769 0C2026 07 26.17387700 28 27.694-35 51 10.76   ~7Q9K 19.25oVNEOCPM22

Station data:
(M22) ATLAS South Africa, Sutherland  (S32.380156 E20.810590)  South Africa.
   Observers L. Denneau, R. Siverd, J. Tonry, H. Weiland. Measurers L.
   Denneau, N. Erasmus, A. Fitzsimmons, J. Robinson, R. Siverd, J. Tonry, H.
   Weiland. 0.5-m f/2.0 Schmidt + CCD.

Orbital elements:  A11F769
   Perihelion 2026 Oct 9.536020 +/- 35.7 TT = 12:51:52.0 (JD 2461323.036020)
Epoch 2026 Jul 26.0 TT = JDT 2461247.5   Earth MOID: 0.0027   Me: 0.0740
M 249.465237783 +/- 35              (J2000 ecliptic)             AutoNEOCP
n   1.463338456 +/- 0.208           Peri.  149.235855 +/- 3.9
a   0.768374349 +/- 0.074           Node   304.835771 +/- 1.6
e   0.49813043 +/- 0.343            Incl.   14.398552 +/- 18
P   0.674/246.008d         H 26.94  G  0.15   U 11.7
q 0.385623703 +/- 0.304    Q 1.151124995 +/- 0.158
3 of 4 observations 2026 July 26 (65.4 min); mean residual 0".01
Residuals in arcseconds: 
260726 M22  .02-  .02+    260726 M22  .02-  .02+    
260726 M22( 2.7+  2.4-)   260726 M22  .00   .00     

Ephemerides (geocentric):
Date (UTC) HH   RA             Dec           delta  r     elong  mag " sig PA
---- --------  ------------   ------------  ------ ------ -----  --- --------
2026 07 28 22  10 44 37.769   +18 59 01.65  .00968 1.0071  31.5 25?? 8332  29
2026 07 28 23  10 46 17.908   +19 20 04.81  .00999 1.0068  31.8 25?? 8000  28
2026 07 29 00  10 47 52.328   +19 39 47.93  .01030 1.0066  32.1 25?? 7694  28
2026 07 29 01  10 49 21.496   +19 58 18.16  .01062 1.0064  32.4 25?? 7413  28
2026 07 29 02  10 50 45.830   +20 15 41.82  .01093 1.0061  32.7 25?? 7154  27
2026 07 29 03  10 52 05.707   +20 32 04.58  .01125 1.0059  32.9 25?? 6915  27
2026 07 29 04  10 53 21.463   +20 47 31.48  .01157 1.0056  33.2 25?? 6693  27
2026 07 29 05  10 54 33.406   +21 02 07.02  .01188 1.0054  33.4 25?? 6487  26
2026 07 29 06  10 55 41.810   +21 15 55.27  .01220 1.0051  33.6 25?? 6295  26
2026 07 29 07  10 56 46.927   +21 28 59.86  .01252 1.0049  33.8 25?? 6116  26
2026 07 29 08  10 57 48.984   +21 41 24.10  .01284 1.0047  34.0 25?? 5950  26
2026 07 29 09  10 58 48.188   +21 53 10.94  .01316 1.0044  34.2 25?? 5794  25
2026 07 29 10  10 59 44.729   +22 04 23.08  .01348 1.0042  34.4 25?? 5648  25
2026 07 29 11  11 00 38.779   +22 15 02.98  .01380 1.0039  34.6 25?? 5511  25
2026 07 29 12  11 01 30.498   +22 25 12.85  .01412 1.0037  34.7 25?? 5382  25
2026 07 29 13  11 02 20.029   +22 34 54.72  .01444 1.0034  34.9 25?? 5261  24
2026 07 29 14  11 03 07.508   +22 44 10.45  .01476 1.0032  35.0 25?? 5147  24
2026 07 29 15  11 03 53.056   +22 53 01.73  .01508 1.0029  35.2 25?? 5039  24
2026 07 29 16  11 04 36.788   +23 01 30.11  .01540 1.0027  35.3 25?? 4938  24
2026 07 29 17  11 05 18.808   +23 09 37.03  .01572 1.0025  35.4 25?? 4841  23
2026 07 29 18  11 05 59.214   +23 17 23.78  .01604 1.0022  35.5 25?? 4750  23
2026 07 29 19  11 06 38.094   +23 24 51.59  .01636 1.0020  35.6 25?? 4664  23
2026 07 29 20  11 07 15.533   +23 32 01.57  .01668 1.0017  35.8 25?? 4582  23
2026 07 29 21  11 07 51.607   +23 38 54.75  .01701 1.0015  35.9 25?? 4504  23
2026 07 29 22  11 08 26.389   +23 45 32.07  .01733 1.0012  36.0 25?? 4430  22
2026 07 29 23  11 08 59.945   +23 51 54.43  .01765 1.0010  36.1 25?? 4360  22
2026 07 30 00  11 09 32.338   +23 58 02.65  .01797 1.0007  36.1 25?? 4293  22
2026 07 30 01  11 10 03.626   +24 03 57.48  .01829 1.0005  36.2 25?? 4229  22
2026 07 30 02  11 10 33.864   +24 09 39.63  .01862 1.0002  36.3 25?? 4168  22
2026 07 30 03  11 11 03.103   +24 15 09.77  .01894 1.0000  36.4 25?? 4109  22
2026 07 30 04  11 11 31.390   +24 20 28.50  .01926 0.9998  36.5 25?? 4053  21
2026 07 30 05  11 11 58.770   +24 25 36.41  .01959 0.9995  36.5 25?? 4000  21
2026 07 30 06  11 12 25.285   +24 30 34.03  .01991 0.9993  36.6 25?? 3949  21
2026 07 30 07  11 12 50.975   +24 35 21.86  .02023 0.9990  36.7 25?? 3899  21
2026 07 30 08  11 13 15.876   +24 40 00.37  .02056 0.9988  36.7 25?? 3852  21
2026 07 30 09  11 13 40.024   +24 44 30.00  .02088 0.9985  36.8 25?? 3807  21
2026 07 30 10  11 14 03.450   +24 48 51.17  .02120 0.9983  36.8 25?? 3764  20
2026 07 30 11  11 14 26.188   +24 53 04.27  .02153 0.9980  36.9 25?? 3722  20
2026 07 30 12  11 14 48.264   +24 57 09.65  .02185 0.9978  37.0 25?? 3682  20
2026 07 30 13  11 15 09.708   +25 01 07.66  .02217 0.9975  37.0 25?? 3643  20
2026 07 30 14  11 15 30.545   +25 04 58.63  .02250 0.9973  37.1 25?? 3606  20
2026 07 30 15  11 15 50.799   +25 08 42.87  .02282 0.9970  37.1 25?? 3570  20
2026 07 30 16  11 16 10.495   +25 12 20.65  .02315 0.9968  37.1 25?? 3535  20
2026 07 30 17  11 16 29.654   +25 15 52.25  .02347 0.9965  37.2 25?? 3502  20
2026 07 30 18  11 16 48.297   +25 19 17.93  .02379 0.9963  37.2 25?? 3470  19
2026 07 30 19  11 17 06.444   +25 22 37.94  .02412 0.9960  37.3 26?? 3439  19
2026 07 30 20  11 17 24.114   +25 25 52.49  .02444 0.9958  37.3 26?? 3409  19
2026 07 30 21  11 17 41.324   +25 29 01.81  .02477 0.9955  37.3 26?? 3379  19